"Pseudo-MPEC" for P1161E4

Created 2020 Sep 17 0:07:32 UT using Find_Orb

Click here for an explanation of pseudo-MPECs

 
 Astrometry: 
     P1161E4  C2020 09 14MF2_c?sAstrometryn8K$g0+*_7Xqx[1OE-a!I5redacted;[oaxF51
     P1161E4  C2020 09 14hWK\ov;\click`FAy7yK646here?R\forL:7u)90explanationRF51
     P1161E4  C2020 09 14U.A2ZW(0rKs_J0^uL2@%HFs_BVy,.T;O@OaH93Ad,iq?dqkPkJx8F51
     P1161E4  C2020 09 14C84y7tbEi7eRhXf/vr5eC.*;Z`J3RHK@!;ca*U#-n[MW1FGwiU'^F51
     P1161E4  C2020 09 15.46199 02 05 08.06 -09 36 51.2    ~9FBq 20.3 GVNEOCPG96
     P1161E4  C2020 09 15.46709 02 05 11.75 -09 36 10.2    ~9FBq 20.9 GVNEOCPG96
     P1161E4  C2020 09 15.47218 02 05 15.30 -09 35 29.9    ~9FBq 20.8 GVNEOCPG96
     P1161E4  C2020 09 15.47727 02 05 18.93 -09 34 48.5    ~9FBq 20.9 GVNEOCPG96
     P1161E4  C2020 09 16.38770 02 17 28.84 -07 24 18.2    ~9G9q 20.2 GVNEOCPI52
     P1161E4  C2020 09 16.38968 02 17 30.38 -07 23 59.8    ~9G9q 20.5 GVNEOCPI52
     P1161E4  C2020 09 16.39165 02 17 31.93 -07 23 41.9    ~9G9q 20.7 GVNEOCPI52
     P1161E4  C2020 09 16.39362 02 17 33.50 -07 23 24.7    ~9G9q 20.8 GVNEOCPI52

Station data:
(F51) Pan-STARRS 1, Haleakala  (N20.707235 W156.255910)  US/Hawaii.
   Observers N. Primak, A. Schultz, S. Watters, J. Thiel, T. Goggia. Measurer
   PS1 Science Consortium. 1.8-m Ritchey-Chrétien + CCD.
(G96) Mt. Lemmon Survey  (N32.442754 W110.788720)  US/Arizona.  Observers T.
   A. Pruyne, B. M. Africano, E. J. Christensen, G. A. Farneth, D. C. Fuls,
   A. R. Gibbs, A. D. Grauer, H. Gröller, J. A. Johnson, R. A. Kowalski, S.
   M. Larson, G. J. Leonard, D. Rankin, R. L. Seaman, F. C. Shelly. 1.5-m
   reflector + 10K CCD.
(I52) Steward Observatory, Mt. Lemmon Station  (N32.442547 W110.788920)
   US/Arizona.  Observers T. A. Pruyne, B. M. Africano, E. J. Christensen, G.
   A. Farneth, D. C. Fuls, A. R. Gibbs, A. D. Grauer, H. Gröller, J. A.
   Johnson, R. A. Kowalski, S. M. Larson, G. J. Leonard, D. Rankin, R. L.
   Seaman, F. C. Shelly. 1.0-m reflector + CCD.

Orbital elements:  P1161E4
   Perihelion 2020 Oct 27.633928 +/- 0.0985 TT = 15:12:51 (JD 2459150.133928)
Epoch 2020 Sep 16.0 TT = JDT 2459108.5   Earth MOID: 0.0069   Ma: 0.0437
M 341.88571566 +/- 0.33             (J2000 ecliptic)          AutoNEOCP
n   0.43508468 +/- 0.00699          Peri.   41.33852 +/- 0.024
a   1.72485868 +/- 0.0185           Node     4.11235 +/- 0.024
e   0.4576892 +/- 0.00612           Incl.    7.68186 +/- 0.07
P   2.27/827.41d           H 25.4   G  0.15   U  9.4  
q 0.93540941 +/- 0.000551    Q 2.51430794 +/- 0.0379
From 12 observations 2020 Sept. 14-16 (46.1 hr); mean residual 0".31
Residuals in arcseconds: 
200914 F51  .20+  .04-    200915 G96  .31-  .37+    200916 I52  .27+  .14+    
200914 F51  .29-  .16-    200915 G96  .73+  .28+    200916 I52  .09-  .37+    
200914 F51  .18-  .09-    200915 G96  .27-  .48-    200916 I52  .19-  .19+    
200914 F51  .28+  .30+    200915 G96  .16-  .18-    200916 I52  .01+  .70-    

Ephemerides (geocentric):
Date (UTC) HH   RA              Dec         delta   r     elong  mag " sig PA
---- -- -- --  -------------   -----------  ------ ------ -----  --- ---- ---
2020 09 17 00  02 26 19.965   -05 44 44.43  .05967 1.0503 138.1 20.9 1.30 102
2020 09 17 01  02 26 57.593   -05 37 45.05  .05950 1.0501 138.0 20.9 1.39  99
2020 09 17 02  02 27 35.403   -05 30 43.22  .05934 1.0499 137.9 20.9 1.49  96
2020 09 17 03  02 28 13.395   -05 23 38.91  .05918 1.0497 137.8 20.9 1.60  93
2020 09 17 04  02 28 51.570   -05 16 32.12  .05902 1.0495 137.7 20.9 1.71  90
2020 09 17 05  02 29 29.929   -05 09 22.84  .05886 1.0493 137.6 20.9 1.83  88
2020 09 17 06  02 30 08.472   -05 02 11.07  .05870 1.0491 137.4 20.9 1.95  86
2020 09 17 07  02 30 47.201   -04 54 56.80  .05854 1.0488 137.3 20.9 2.08  84
2020 09 17 08  02 31 26.117   -04 47 40.02  .05838 1.0486 137.2 20.9 2.22  82
2020 09 17 09  02 32 05.219   -04 40 20.72  .05822 1.0484 137.1 20.9 2.37  80
2020 09 17 10  02 32 44.509   -04 32 58.91  .05806 1.0482 137.0 20.9 2.52  79
2020 09 17 11  02 33 23.987   -04 25 34.57  .05791 1.0480 136.8 20.9 2.68  77
2020 09 17 12  02 34 03.655   -04 18 07.69  .05775 1.0478 136.7 20.9 2.84  76
2020 09 17 13  02 34 43.513   -04 10 38.28  .05760 1.0476 136.6 20.9 3.01  75
2020 09 17 14  02 35 23.562   -04 03 06.33  .05744 1.0474 136.4 20.9 3.18  74
2020 09 17 15  02 36 03.803   -03 55 31.83  .05729 1.0472 136.3 20.9 3.36  73
2020 09 17 16  02 36 44.236   -03 47 54.78  .05714 1.0469 136.2 20.9 3.55  72
2020 09 17 17  02 37 24.862   -03 40 15.17  .05699 1.0467 136.1 20.9 3.74  71
2020 09 17 18  02 38 05.682   -03 32 33.00  .05684 1.0465 135.9 20.9 3.94  71
2020 09 17 19  02 38 46.697   -03 24 48.26  .05669 1.0463 135.8 20.9 4.14  70
2020 09 17 20  02 39 27.907   -03 17 00.96  .05654 1.0461 135.7 20.9 4.35  69
2020 09 17 21  02 40 09.313   -03 09 11.08  .05639 1.0459 135.5 20.9 4.57  69
2020 09 17 22  02 40 50.916   -03 01 18.64  .05624 1.0457 135.4 20.9 4.79  68
2020 09 17 23  02 41 32.716   -02 53 23.61  .05609 1.0455 135.3 20.9 5.02  67
2020 09 18 00  02 42 14.715   -02 45 26.01  .05595 1.0453 135.1 20.9 5.25  67
2020 09 18 01  02 42 56.913   -02 37 25.83  .05580 1.0451 135.0 20.9 5.49  66
2020 09 18 02  02 43 39.310   -02 29 23.06  .05566 1.0448 134.8 20.9 5.74  66
2020 09 18 03  02 44 21.907   -02 21 17.71  .05552 1.0446 134.7 20.9 5.99  65
2020 09 18 04  02 45 04.706   -02 13 09.78  .05537 1.0444 134.6 20.9 6.24  65
2020 09 18 05  02 45 47.706   -02 04 59.27  .05523 1.0442 134.4 20.9 6.51  65
2020 09 18 06  02 46 30.908   -01 56 46.17  .05509 1.0440 134.3 20.9 6.78  64
2020 09 18 07  02 47 14.314   -01 48 30.49  .05495 1.0438 134.1 20.9 7.05  64
2020 09 18 08  02 47 57.923   -01 40 12.23  .05481 1.0436 134.0 20.9 7.34  64
2020 09 18 09  02 48 41.736   -01 31 51.38  .05468 1.0434 133.8 20.9 7.63  63
2020 09 18 10  02 49 25.754   -01 23 27.96  .05454 1.0432 133.7 20.8 7.92  63
2020 09 18 11  02 50 09.977   -01 15 01.96  .05440 1.0430 133.5 20.8 8.22  63
2020 09 18 12  02 50 54.406   -01 06 33.39  .05427 1.0428 133.4 20.8 8.53  63
2020 09 18 13  02 51 39.042   -00 58 02.24  .05413 1.0425 133.2 20.8 8.84  62
2020 09 18 14  02 52 23.885   -00 49 28.53  .05400 1.0423 133.1 20.8 9.16  62
2020 09 18 15  02 53 08.936   -00 40 52.26  .05387 1.0421 132.9 20.8 9.49  62
2020 09 18 16  02 53 54.195   -00 32 13.42  .05374 1.0419 132.8 20.8 9.83  62
2020 09 18 17  02 54 39.663   -00 23 32.03  .05361 1.0417 132.6 20.8 10.2  61
2020 09 18 18  02 55 25.340   -00 14 48.10  .05348 1.0415 132.5 20.8 10.5  61
2020 09 18 19  02 56 11.228   -00 06 01.62  .05335 1.0413 132.3 20.8 10.9  61
2020 09 18 20  02 56 57.325   +00 02 47.39  .05322 1.0411 132.1 20.8 11.2  61
2020 09 18 21  02 57 43.633   +00 11 38.94  .05309 1.0409 132.0 20.8 11.6  61
2020 09 18 22  02 58 30.153   +00 20 33.00  .05297 1.0407 131.8 20.8 12.0  60
2020 09 18 23  02 59 16.884   +00 29 29.58  .05284 1.0405 131.7 20.8 12.4  60